• In Czech Republic
  • List of Countries
  • For 7 days
  • Water Temperature
  • Satellite Maps
  • Weather Map
  • Weather Widgets
  • user-avatar
    Login

    Hourly Weather Novonikolaevka

    Today, 23 September, Sunday

    Time Temperature Precipitation Wind Pressure Humidity
    00:00 +20°C° 0 mm 2 mps 752 mmHg 51%
    01:00 +19°C° 0 mm 2 mps 751 mmHg 53%
    02:00 +19°C° 0 mm 2 mps 751 mmHg 56%
    03:00 +18°C° 0 mm 2 mps 751 mmHg 58%
    04:00 +18°C° 0 mm 2 mps 751 mmHg 59%
    05:00 +18°C° 0 mm 2 mps 751 mmHg 61%
    06:00 +19°C° 0 mm 2 mps 751 mmHg 57%
    07:00 +21°C° 0 mm 3 mps 751 mmHg 54%
    08:00 +22°C° 0 mm 3 mps 750 mmHg 50%
    09:00 +22°C° 0.1 mm 4 mps 751 mmHg 51%
    10:00 +22°C° 0.1 mm 5 mps 751 mmHg 53%
    11:00 +22°C° 0.1 mm 5 mps 751 mmHg 54%
    12:00 +20°C° 1.2 mm 5 mps 751 mmHg 63%
    13:00 +18°C° 1.2 mm 4 mps 751 mmHg 72%
    14:00 +17°C° 1.2 mm 4 mps 752 mmHg 81%
    15:00 +15°C° 0.2 mm 4 mps 752 mmHg 79%
    16:00 +15°C° 0.2 mm 4 mps 752 mmHg 77%
    17:00 +15°C° 0.2 mm 4 mps 752 mmHg 75%
    18:00 +14°C° 0 mm 4 mps 752 mmHg 75%
    19:00 +13°C° 0 mm 3 mps 753 mmHg 76%
    20:00 +14°C° 0 mm 2 mps 753 mmHg 76%
    21:00 +13°C° 0 mm 2 mps 754 mmHg 76%
    22:00 +13°C° 0 mm 2 mps 754 mmHg 76%
    23:00 +12°C° 0 mm 2 mps 754 mmHg 76%

    Tomorrow, 24 September, Monday

    Time Temperature Precipitation Wind Pressure Humidity
    00:00 +12°C° 0 mm 1 mps 754 mmHg 76%
    01:00 +12°C° 0 mm 1 mps 754 mmHg 76%
    02:00 +12°C° 0 mm 1 mps 754 mmHg 76%
    03:00 +12°C° 0 mm 1 mps 754 mmHg 76%
    04:00 +12°C° 0 mm 1 mps 754 mmHg 76%
    05:00 +11°C° 0 mm 1 mps 754 mmHg 76%
    06:00 +13°C° 0 mm 2 mps 754 mmHg 70%
    07:00 +13°C° 0 mm 3 mps 753 mmHg 65%
    08:00 +15°C° 0 mm 4 mps 753 mmHg 59%
    09:00 +16°C° 0 mm 5 mps 753 mmHg 54%
    10:00 +17°C° 0 mm 6 mps 752 mmHg 49%
    11:00 +20°C° 0 mm 6 mps 752 mmHg 44%
    12:00 +20°C° 0 mm 6 mps 751 mmHg 42%
    13:00 +21°C° 0 mm 7 mps 750 mmHg 41%
    14:00 +21°C° 0 mm 7 mps 749 mmHg 39%
    15:00 +21°C° 0 mm 7 mps 749 mmHg 41%
    16:00 +20°C° 0 mm 7 mps 748 mmHg 44%
    17:00 +19°C° 0 mm 6 mps 747 mmHg 46%
    18:00 +18°C° 0 mm 7 mps 747 mmHg 51%
    19:00 +17°C° 0 mm 7 mps 747 mmHg 57%
    20:00 +17°C° 0 mm 7 mps 747 mmHg 62%
    21:00 +17°C° 0.5 mm 7 mps 747 mmHg 68%
    22:00 +16°C° 0.5 mm 7 mps 747 mmHg 74%
    23:00 +16°C° 0.5 mm 7 mps 747 mmHg 80%

    Day after tomorrow, 25 September, Tuesday

    Time Temperature Precipitation Wind Pressure Humidity
    00:00 +14°C° 0.7 mm 7 mps 747 mmHg 80%
    01:00 +12°C° 0.7 mm 7 mps 748 mmHg 81%
    02:00 +10°C° 0.7 mm 6 mps 748 mmHg 82%
    03:00 +10°C° 0.4 mm 6 mps 748 mmHg 81%
    04:00 +10°C° 0.4 mm 5 mps 749 mmHg 80%
    05:00 +9°C° 0.4 mm 5 mps 749 mmHg 78%
    06:00 +10°C° 0 mm 5 mps 750 mmHg 75%
    07:00 +12°C° 0 mm 5 mps 750 mmHg 72%
    08:00 +11°C° 0 mm 6 mps 751 mmHg 69%
    09:00 +13°C° 0 mm 6 mps 751 mmHg 63%
    10:00 +14°C° 0 mm 6 mps 751 mmHg 57%
    11:00 +15°C° 0 mm 6 mps 751 mmHg 51%
    12:00 +15°C° 0.1 mm 6 mps 752 mmHg 48%
    13:00 +16°C° 0.1 mm 6 mps 752 mmHg 45%
    14:00 +16°C° 0.1 mm 7 mps 752 mmHg 42%
    15:00 +15°C° 0.1 mm 6 mps 752 mmHg 45%
    16:00 +14°C° 0.1 mm 6 mps 752 mmHg 48%
    17:00 +13°C° 0.1 mm 5 mps 753 mmHg 51%
    18:00 +12°C° 0 mm 4 mps 753 mmHg 57%
    19:00 +11°C° 0 mm 4 mps 754 mmHg 62%
    20:00 +10°C° 0 mm 3 mps 754 mmHg 68%
    21:00 +10°C° 0 mm 4 mps 755 mmHg 69%
    22:00 +10°C° 0 mm 4 mps 755 mmHg 69%
    23:00 +10°C° 0 mm 4 mps 756 mmHg 70%

    26 September, Wednesday

    Time Temperature Precipitation Wind Pressure Humidity
    00:00 +8°C° 0 mm 4 mps 756 mmHg 69%
    01:00 +8°C° 0 mm 4 mps 756 mmHg 68%
    02:00 +7°C° 0 mm 4 mps 757 mmHg 67%
    03:00 +8°C° 0 mm 3 mps 757 mmHg 69%
    04:00 +7°C° 0 mm 3 mps 757 mmHg 70%
    05:00 +5°C° 0 mm 3 mps 758 mmHg 72%
    06:00 +7°C° 0 mm 3 mps 758 mmHg 68%
    07:00 +7°C° 0 mm 4 mps 759 mmHg 64%
    08:00 +8°C° 0 mm 4 mps 759 mmHg 59%
    09:00 +10°C° 0 mm 4 mps 759 mmHg 54%
    10:00 +11°C° 0 mm 4 mps 759 mmHg 49%
    11:00 +12°C° 0 mm 4 mps 760 mmHg 43%
    12:00 +13°C° 0 mm 4 mps 760 mmHg 42%
    13:00 +13°C° 0 mm 4 mps 760 mmHg 40%
    14:00 +13°C° 0 mm 4 mps 759 mmHg 38%
    15:00 +13°C° 0 mm 4 mps 760 mmHg 40%
    16:00 +12°C° 0 mm 4 mps 760 mmHg 41%
    17:00 +12°C° 0 mm 4 mps 760 mmHg 43%
    18:00 +11°C° 0 mm 3 mps 761 mmHg 47%
    19:00 +10°C° 0 mm 3 mps 761 mmHg 51%
    20:00 +9°C° 0 mm 3 mps 761 mmHg 55%
    21:00 +9°C° 0 mm 3 mps 761 mmHg 58%
    22:00 +8°C° 0 mm 3 mps 762 mmHg 61%
    23:00 +7°C° 0 mm 3 mps 762 mmHg 64%

    27 September, Thursday

    Time Temperature Precipitation Wind Pressure Humidity
    00:00 +7°C° 0 mm 3 mps 762 mmHg 64%
    01:00 +7°C° 0 mm 2 mps 762 mmHg 65%
    02:00 +6°C° 0 mm 2 mps 762 mmHg 65%
    03:00 +6°C° 0 mm 2 mps 761 mmHg 65%
    04:00 +5°C° 0 mm 2 mps 761 mmHg 65%
    05:00 +5°C° 0 mm 2 mps 761 mmHg 65%
    06:00 +6°C° 0 mm 2 mps 761 mmHg 59%
    07:00 +9°C° 0 mm 1 mps 761 mmHg 54%
    08:00 +10°C° 0 mm 1 mps 761 mmHg 48%
    09:00 +10°C° 0 mm 2 mps 761 mmHg 43%
    10:00 +13°C° 0 mm 2 mps 761 mmHg 38%
    11:00 +13°C° 0 mm 3 mps 760 mmHg 33%
    12:00 +14°C° 0 mm 3 mps 760 mmHg 31%
    13:00 +14°C° 0 mm 4 mps 759 mmHg 30%
    14:00 +15°C° 0 mm 4 mps 759 mmHg 28%
    15:00 +14°C° 0 mm 4 mps 758 mmHg 31%
    16:00 +13°C° 0 mm 3 mps 758 mmHg 33%
    17:00 +13°C° 0 mm 3 mps 757 mmHg 36%
    18:00 +12°C° 0 mm 3 mps 757 mmHg 37%
    19:00 +11°C° 0 mm 3 mps 757 mmHg 39%
    20:00 +10°C° 0 mm 3 mps 757 mmHg 40%
    21:00 +10°C° 0 mm 3 mps 757 mmHg 41%
    22:00 +10°C° 0 mm 3 mps 757 mmHg 41%
    23:00 +10°C° 0 mm 4 mps 757 mmHg 41%

    28 September, Friday

    Time Temperature Precipitation Wind Pressure Humidity
    00:00 +10°C° 0 mm 3 mps 756 mmHg 42%
    01:00 +10°C° 0 mm 3 mps 756 mmHg 43%
    02:00 +10°C° 0 mm 3 mps 756 mmHg 43%
    03:00 +10°C° 0 mm 3 mps 756 mmHg 47%
    04:00 +9°C° 0 mm 2 mps 756 mmHg 50%
    05:00 +9°C° 0 mm 2 mps 756 mmHg 54%
    06:00 +10°C° 0 mm 2 mps 756 mmHg 54%
    07:00 +12°C° 0 mm 2 mps 756 mmHg 54%
    08:00 +14°C° 0 mm 2 mps 756 mmHg 55%
    09:00 +15°C° 0 mm 2 mps 756 mmHg 53%
    10:00 +16°C° 0 mm 2 mps 756 mmHg 51%
    11:00 +18°C° 0 mm 2 mps 756 mmHg 50%
    12:00 +19°C° 0 mm 2 mps 755 mmHg 48%
    13:00 +20°C° 0 mm 3 mps 755 mmHg 45%
    14:00 +20°C° 0 mm 3 mps 754 mmHg 43%
    15:00 +20°C° 0 mm 2 mps 754 mmHg 46%
    16:00 +19°C° 0 mm 2 mps 754 mmHg 49%
    17:00 +18°C° 0 mm 2 mps 754 mmHg 52%
    18:00 +18°C° 0 mm 1 mps 754 mmHg 55%
    19:00 +16°C° 0 mm 1 mps 754 mmHg 58%
    20:00 +15°C° 0 mm 1 mps 755 mmHg 60%
    21:00 +15°C° 0 mm 1 mps 755 mmHg 62%
    22:00 +14°C° 0 mm 1 mps 754 mmHg 63%
    23:00 +14°C° 0 mm 1 mps 754 mmHg 65%
    Show more